Boca Raton, FL (33433)

5:17 PM EST on December 10, 2016 (GMT -0500)
| | Change Station

Elev -9999 ft 0.00 °N, 0.00 °E | Updated 8 minutes ago

Mostly Cloudy
Mostly Cloudy
77 °F
Feels Like 77 °F
N
13
Wind Variable Wind from ENE
Gusts 18 mph

Today
High -- | Low -- °F
--% Chance of Precip.
Yesterday
High -- | Low -- °F
Precip. -- in
Pressure 30.20 in
Visibility 7.0 miles
Clouds Scattered Clouds 2300 ft
Mostly Cloudy 3200 ft
Overcast 7000 ft
Dew Point 66 °F
Humidity 69%
Rainfall --
Snow Depth Not available.
6:57 AM 5:29 PM
Waxing Gibbous, 86% visible
METAR KPMP 102153Z AUTO 06015G25KT 7SM SCT023 BKN032 OVC070 22/19 A3020 RMK AO2 PK WND 05027/2120 SLP227 T02220189
Pressure 30.20 in
Visibility 7.0 miles
Clouds Scattered Clouds 2300 ft
Mostly Cloudy 3200 ft
Overcast 7000 ft
Dew Point 66 °F
Humidity 69%
Rainfall --
Snow Depth Not available.
6:57 AM 5:29 PM
Waxing Gibbous, 86% visible
METAR KPMP 102153Z AUTO 06015G25KT 7SM SCT023 BKN032 OVC070 22/19 A3020 RMK AO2 PK WND 05027/2120 SLP227 T02220189

10-Day Weather Forecast

Almanac

Astronomy

Dec. 10, 2016 Rise Set
Actual Time
Civil Twilight
Nautical Twilight
Astronomical Twilight
Moon
Length of Visible Light
Length of Day
Tomorrow will be .
, % of the Moon is Illuminated

Today's Extremes

State Highs State Lows

Community

WunderPhotos

Upload Photos

1,956,672 photos uploaded!

WunderBlog® & News

Nearby

Air Quality

  Air Quality AQ Index Pollutant
Not available.

Snow Depth

Station Depth Elevation

Earthquake Activity

City Distance Mag. Time & Date
Minimum magnitude displayed is 2.5.

Coastal Water Temperatures

Place Temperature

Stations

Nearby Weather Stations

Station Location Temp. Windchill Dew Point Humidity Wind Precip. Elev Updated Type
                   

Watches & Warnings

There are currently no watches in effect.